Weather History for KPWA - May, 2013

Change the Weather History Date:

Tuesday, May 28, 2013

  Actual Average Record
Temperature  
Mean Temperature 76 °F -  
Max Temperature 79 °F 78 °F 95 °F (1953)
Min Temperature 73 °F 60 °F 50 °F (1997)
Cooling Degree Days 10    
Growing Degree Days 26 (Base 50)    
Moisture  
Dew Point 65 °F    
Average Humidity 70    
Maximum Humidity 79    
Minimum Humidity 61    
Precipitation  
Precipitation 0.00 in - - ()
Sea Level Pressure  
Sea Level Pressure 29.71 in    
Wind  
Wind Speed 22 mph (South)    
Max Wind Speed 29 mph    
Max Gust Speed 37 mph    
Visibility 8 miles    
Events      
Averages and records for this station are not official NWS values.
T = Trace of Precipitation, MM = Missing Value Source: NWS Daily Summary

Daily Weather History Graph

Daily Weather History Graph

Search for Another Location

Airport or City:

Trip Planner

Search our weather history database for the weather conditions in past years. The results will help you decide how hot, cold, wet, or windy it might be!

Date:

Astronomy

May. 28, 2013 Rise Set
Actual Time 6:17 AM CDT 8:38 PM CDT
Civil Twilight 5:48 AM CDT 9:07 PM CDT
Nautical Twilight 5:12 AM CDT 9:43 PM CDT
Astronomical Twilight 4:33 AM CDT 10:23 PM CDT
Moon No Moon Rise 10:04 AM CDT (5/28)
Length of Visible Light 15h 19m
Length of Day
14h 20m
Waning Gibbous, 82% of the Moon is Illuminated
May 28
Waning Gibbous
May 31
Last Quarter
Jun 8
New
Jun 16
First Quarter
Jun 23
Full

Hourly Weather History & Observations

Time (CDT) Temp. Dew Point Humidity Pressure Visibility Wind Dir Wind Speed Gust Speed Precip Events Conditions
12:53 AM 77.0 °F 64.9 °F 66% 29.67 in 10.0 mi South 25.3 mph 36.8 mph N/A   Clear
1:53 AM 75.9 °F 64.9 °F 69% 29.67 in 10.0 mi South 23.0 mph 34.5 mph N/A   Clear
2:53 AM 75.9 °F 64.9 °F 69% 29.66 in 10.0 mi South 21.9 mph 29.9 mph N/A   Clear
3:53 AM 75.0 °F 66.0 °F 73% 29.67 in 9.0 mi South 20.7 mph 29.9 mph N/A   Clear
4:42 AM 75.2 °F 66.2 °F 73% 29.72 in 9.0 mi South 19.6 mph 28.8 mph N/A   Mostly Cloudy
4:53 AM 75.0 °F 66.0 °F 73% 29.68 in 9.0 mi South 21.9 mph 29.9 mph N/A   Mostly Cloudy
5:53 AM 75.0 °F 66.9 °F 76% 29.70 in 8.0 mi South 20.7 mph 27.6 mph N/A   Overcast
6:38 AM 75.2 °F 66.2 °F 73% 29.76 in 7.0 mi South 20.7 mph 32.2 mph N/A   Overcast
6:53 AM 73.9 °F 66.9 °F 79% 29.71 in 7.0 mi South 18.4 mph 26.5 mph N/A   Overcast
7:53 AM 73.9 °F 66.9 °F 79% 29.69 in 7.0 mi South 23.0 mph 31.1 mph N/A   Clear
8:53 AM 73.9 °F 66.0 °F 76% 29.70 in 7.0 mi South 20.7 mph 31.1 mph N/A   Partly Cloudy
8:56 AM 73.4 °F 66.2 °F 78% 29.74 in 7.0 mi South 25.3 mph 32.2 mph N/A   Mostly Cloudy
8:58 AM 73.4 °F 66.2 °F 78% 29.74 in 7.0 mi South 28.8 mph 36.8 mph N/A   Mostly Cloudy
9:53 AM 73.9 °F 66.0 °F 76% 29.71 in 7.0 mi South 21.9 mph 31.1 mph N/A   Mostly Cloudy
10:53 AM 77.0 °F 66.9 °F 71% 29.72 in 7.0 mi South 23.0 mph 29.9 mph N/A   Overcast
11:53 AM 78.1 °F 66.0 °F 66% 29.71 in 8.0 mi South 25.3 mph 34.5 mph N/A   Mostly Cloudy
12:22 PM 78.8 °F 64.4 °F 61% 29.77 in 8.0 mi South 26.5 mph 35.7 mph N/A   Mostly Cloudy
12:53 PM 77.0 °F 64.0 °F 64% 29.73 in 7.0 mi SSW 27.6 mph 34.5 mph N/A   Overcast
1:53 PM 77.0 °F 64.0 °F 64% 29.72 in 8.0 mi South 26.5 mph 32.2 mph N/A   Clear
2:53 PM 75.9 °F 64.0 °F 67% 29.73 in 7.0 mi South 19.6 mph 27.6 mph N/A   Mostly Cloudy
3:53 PM 75.9 °F 64.0 °F 67% 29.73 in 7.0 mi South 19.6 mph 26.5 mph N/A   Overcast
4:53 PM 78.1 °F 64.9 °F 64% 29.70 in 7.0 mi South 23.0 mph 29.9 mph N/A   Clear
5:53 PM 77.0 °F 64.9 °F 66% 29.68 in 7.0 mi South 21.9 mph 34.5 mph N/A   Clear
6:53 PM 77.0 °F 66.0 °F 69% 29.68 in 7.0 mi SSE 18.4 mph 28.8 mph N/A   Partly Cloudy
7:53 PM 75.9 °F 64.0 °F 67% 29.66 in 8.0 mi SSE 21.9 mph - N/A   Clear
8:53 PM 75.9 °F 63.0 °F 64% 29.69 in 8.0 mi SSE 20.7 mph 25.3 mph N/A   Clear
9:53 PM 73.9 °F 63.0 °F 68% 29.74 in 9.0 mi South 15.0 mph - N/A   Scattered Clouds
10:53 PM 75.0 °F 63.0 °F 66% 29.73 in 10.0 mi SSE 17.3 mph - N/A   Clear
11:53 PM 73.9 °F 62.1 °F 66% 29.74 in 10.0 mi SSE 15.0 mph - N/A   Clear